Beaver Island, MI

11:04 PM EST on February 22, 2017 (GMT -0500)
Beaver Island

Weather History for KSJX - January, 2013

Change the Weather History Date:

Thursday, January 24, 2013

  Actual Average Record
Temperature  
Mean Temperature 4 °F -  
Max Temperature 14 °F 26 °F 39 °F (1969)
Min Temperature -6 °F 14 °F -11 °F (2004)
Degree Days  
Heating Degree Days 62    
Moisture  
Dew Point 3 °F    
Average Humidity 78    
Maximum Humidity 90    
Minimum Humidity 65    
Precipitation  
Precipitation 0.00 in - - ()
Sea Level Pressure  
Sea Level Pressure 30.49 in    
Wind  
Wind Speed 5 mph (NNE)    
Max Wind Speed 14 mph    
Max Gust Speed 23 mph    
Visibility 8 miles    
Events Snow    
Averages and records for this station are not official NWS values.
T = Trace of Precipitation, MM = Missing Value Source: NWS Daily Summary

Daily Weather History Graph

Daily Weather History Graph

Search for Another Location

Airport or City:

Trip Planner

Search our weather history database for the weather conditions in past years. The results will help you decide how hot, cold, wet, or windy it might be!

Date:

Astronomy

Jan. 24, 2013 Rise Set
Actual Time 8:12 AM EST 5:37 PM EST
Civil Twilight 7:39 AM EST 6:09 PM EST
Nautical Twilight 7:03 AM EST 6:45 PM EST
Astronomical Twilight 6:28 AM EST 7:21 PM EST
Moon 3:37 PM EST (1/24) 6:11 AM EST (1/24)
Length of Visible Light 10h 30m
Length of Day
9h 25m
Waxing Gibbous, 94% of the Moon is Illuminated
Jan 24
Waxing Gibbous
Jan 26
Full
Feb 3
Last Quarter
Feb 10
New
Feb 17
First Quarter

Hourly Weather History & Observations

Time (EST) Temp. Windchill Dew Point Humidity Pressure Visibility Wind Dir Wind Speed Gust Speed Precip Events Conditions
12:16 AM 9.5 °F -1.5 °F 5.0 °F 82% 30.25 in 10.0 mi North 6.9 mph - N/A   Clear
12:35 AM 9.5 °F -0.3 °F 5.4 °F 83% 30.26 in 10.0 mi North 5.8 mph - N/A   Scattered Clouds
12:55 AM 10.6 °F -3.1 °F 5.9 °F 81% 30.28 in 10.0 mi North 10.4 mph 16.1 mph N/A   Mostly Cloudy
1:15 AM 10.4 °F -4.1 °F 5.7 °F 81% 30.29 in 10.0 mi NNE 11.5 mph 18.4 mph N/A   Mostly Cloudy
1:35 AM 10.4 °F -4.8 °F 4.5 °F 77% 30.31 in 10.0 mi North 12.7 mph 16.1 mph N/A   Mostly Cloudy
1:56 AM 10.4 °F -5.4 °F 4.8 °F 78% 30.32 in 10.0 mi North 13.8 mph 23.0 mph N/A   Overcast
2:15 AM 9.5 °F -4.4 °F 3.2 °F 76% 30.34 in 10.0 mi North 10.4 mph - N/A   Overcast
2:35 AM 9.1 °F -4.0 °F 2.8 °F 76% 30.36 in 10.0 mi North 9.2 mph - N/A   Mostly Cloudy
2:55 AM 8.6 °F -5.5 °F 2.3 °F 76% 30.37 in 10.0 mi North 10.4 mph - N/A   Overcast
3:15 AM 8.2 °F -4.1 °F 2.1 °F 76% 30.39 in 10.0 mi North 8.1 mph - N/A   Overcast
3:36 AM 7.2 °F -7.3 °F 1.4 °F 77% 30.40 in 10.0 mi NNE 10.4 mph 16.1 mph N/A   Overcast
3:55 AM 5.9 °F -5.8 °F -0.0 °F 77% 30.41 in 10.0 mi North 6.9 mph - N/A   Scattered Clouds
4:15 AM 5.5 °F -5.0 °F -0.9 °F 75% 30.43 in 10.0 mi North 5.8 mph - N/A   Clear
4:36 AM 4.6 °F -7.4 °F -1.5 °F 76% 30.44 in 10.0 mi North 6.9 mph - N/A   Clear
4:55 AM 4.5 °F -8.7 °F -1.3 °F 77% 30.45 in 10.0 mi NNE 8.1 mph - N/A   Clear
5:15 AM 4.5 °F -6.3 °F -1.7 °F 76% 30.47 in 10.0 mi North 5.8 mph - N/A   Clear
5:36 AM 3.2 °F -9.1 °F -2.7 °F 76% 30.48 in 10.0 mi NNE 6.9 mph - N/A   Clear
5:55 AM 3.2 °F -9.1 °F -3.1 °F 75% 30.48 in 10.0 mi NNE 6.9 mph - N/A   Clear
6:15 AM 3.0 °F -8.0 °F -3.3 °F 75% 30.50 in 10.0 mi NNE 5.8 mph - N/A   Clear
6:36 AM 2.3 °F -7.2 °F -3.5 °F 77% 30.50 in 10.0 mi NNE 4.6 mph - N/A   Clear
6:55 AM 1.8 °F -7.8 °F -3.6 °F 78% 30.52 in 10.0 mi NNE 4.6 mph - N/A   Clear
7:15 AM 1.2 °F - -4.0 °F 79% 30.53 in 10.0 mi Calm Calm - N/A   Clear
7:36 AM 0.5 °F - -4.5 °F 79% 30.53 in 10.0 mi Calm Calm - N/A   Clear
7:55 AM -2.9 °F - -6.2 °F 86% 30.54 in 10.0 mi Calm Calm - N/A   Clear
8:15 AM -2.4 °F - -5.3 °F 88% 30.55 in 10.0 mi Calm Calm - N/A   Clear
8:36 AM -6.0 °F - -9.4 °F 85% 30.55 in 10.0 mi Calm Calm - N/A   Clear
8:55 AM -4.2 °F - -6.9 °F 88% 30.56 in 10.0 mi Calm Calm - N/A   Clear
9:16 AM -3.5 °F - -6.5 °F 87% 30.56 in 3.0 mi Calm Calm - N/A   Clear
9:35 AM 2.3 °F - -1.7 °F 84% 30.57 in 10.0 mi Calm Calm - N/A   Clear
9:55 AM 4.3 °F - -1.7 °F 76% 30.58 in 10.0 mi Calm Calm - N/A   Clear
10:16 AM 5.2 °F -3.8 °F -1.3 °F 75% 30.59 in 10.0 mi NNE 4.6 mph - N/A   Clear
10:35 AM 6.3 °F -2.6 °F -0.8 °F 73% 30.59 in 10.0 mi NE 4.6 mph - N/A   Clear
10:55 AM 7.0 °F - -0.2 °F 72% 30.59 in 10.0 mi Calm Calm - N/A   Clear
11:15 AM 7.5 °F - -0.4 °F 70% 30.58 in 10.0 mi Calm Calm - N/A   Clear
11:35 AM 8.2 °F - -0.0 °F 69% 30.58 in 10.0 mi Calm Calm - N/A   Clear
11:56 AM 8.6 °F -1.3 °F -0.2 °F 67% 30.58 in 10.0 mi WNW 5.8 mph - N/A   Clear
12:15 PM 9.3 °F - 0.7 °F 68% 30.58 in 10.0 mi Calm Calm - N/A   Clear
12:35 PM 10.6 °F 4.3 °F 1.8 °F 68% 30.57 in 10.0 mi NW 3.5 mph - N/A   Clear
12:56 PM 10.9 °F 2.9 °F 1.2 °F 65% 30.57 in 10.0 mi West 4.6 mph - N/A   Clear
1:15 PM 11.5 °F - 1.8 °F 65% 30.57 in 10.0 mi Calm Calm - N/A   Clear
1:36 PM 11.3 °F 5.1 °F 1.9 °F 66% 30.56 in 10.0 mi NW 3.5 mph - N/A   Clear
1:55 PM 12.2 °F 6.1 °F 3.4 °F 68% 30.56 in 10.0 mi WSW 3.5 mph - N/A   Scattered Clouds
2:15 PM 11.3 °F 5.1 °F 3.2 °F 70% 30.55 in 10.0 mi SW 3.5 mph - N/A   Mostly Cloudy
2:36 PM 11.8 °F 1.3 °F 3.7 °F 70% 30.55 in 10.0 mi West 6.9 mph - N/A   Overcast
2:55 PM 11.1 °F - 3.4 °F 71% 30.54 in 7.0 mi Calm Calm - N/A   Overcast
3:15 PM 12.2 °F - 3.9 °F 69% 30.54 in 7.0 mi Calm Calm - N/A   Overcast
3:36 PM 11.7 °F - 3.6 °F 70% 30.55 in 10.0 mi Calm Calm - N/A   Mostly Cloudy
3:55 PM 12.0 °F - 3.4 °F 68% 30.55 in 10.0 mi Calm Calm - N/A   Overcast
4:15 PM 12.4 °F 6.3 °F 3.6 °F 68% 30.56 in 10.0 mi West 3.5 mph - N/A   Overcast
4:36 PM 12.7 °F - 5.0 °F 71% 30.55 in 10.0 mi Calm Calm - N/A   Overcast
4:55 PM 12.4 °F 6.3 °F 6.3 °F 76% 30.55 in 5.0 mi West 3.5 mph - N/A   Haze
5:15 PM 12.4 °F - 3.7 °F 68% 30.54 in 10.0 mi Calm Calm - N/A   Mostly Cloudy
5:35 PM 12.2 °F 6.1 °F 3.9 °F 69% 30.53 in 10.0 mi West 3.5 mph - N/A   Overcast
5:55 PM 11.8 °F - 5.7 °F 76% 30.52 in 10.0 mi Calm Calm - N/A   Overcast
6:16 PM 11.3 °F 5.1 °F 7.5 °F 85% 30.51 in 2.0 mi SSE 3.5 mph - N/A Snow Light Snow
6:35 PM 10.8 °F - 7.7 °F 87% 30.52 in 5.0 mi Calm Calm - N/A Snow Light Snow
6:55 PM 10.4 °F 4.0 °F 7.5 °F 88% 30.51 in 5.0 mi ESE 3.5 mph - N/A Snow Light Snow
7:16 PM 9.5 °F 3.0 °F 6.8 °F 89% 30.50 in 7.0 mi ESE 3.5 mph - N/A Snow Light Snow
7:35 PM 9.5 °F - 7.0 °F 90% 30.50 in 7.0 mi Calm Calm - N/A Snow Light Snow
7:55 PM 9.5 °F - 6.8 °F 89% 30.49 in 2.5 mi Calm Calm - N/A Snow Light Snow
8:16 PM 9.3 °F 2.8 °F 6.8 °F 89% 30.48 in 5.0 mi ESE 3.5 mph - N/A Snow Light Snow
8:35 PM 9.7 °F - 7.3 °F 90% 30.47 in 7.0 mi Calm Calm - N/A   Mostly Cloudy
8:55 PM 10.4 °F - 7.7 °F 89% 30.45 in 4.0 mi Calm Calm - N/A Snow Light Snow
9:16 PM 10.9 °F - 7.9 °F 87% 30.45 in 5.0 mi Calm Calm - N/A Snow Light Snow
9:35 PM 10.9 °F - 8.2 °F 89% 30.44 in 1.8 mi Calm Calm - N/A Snow Light Snow
9:56 PM 11.8 °F 3.9 °F 9.3 °F 90% 30.44 in 2.0 mi ESE 4.6 mph - N/A Snow Light Snow
10:15 PM 12.2 °F 4.3 °F 9.5 °F 89% 30.44 in 3.0 mi ESE 4.6 mph - N/A Snow Light Snow
10:35 PM 12.9 °F 3.8 °F 10.4 °F 90% 30.43 in 2.5 mi ESE 5.8 mph - N/A Snow Light Snow
10:56 PM 13.1 °F 1.8 °F 10.4 °F 89% 30.42 in 2.0 mi ESE 8.1 mph - N/A Snow Light Snow
11:15 PM 13.1 °F 2.8 °F 10.2 °F 88% 30.40 in 3.0 mi SE 6.9 mph - N/A Snow Light Snow
11:35 PM 13.6 °F 3.5 °F 10.4 °F 87% 30.40 in 2.5 mi SE 6.9 mph - N/A Snow Light Snow
11:56 PM 14.0 °F 3.9 °F 10.4 °F 86% 30.40 in 4.0 mi ESE 6.9 mph - N/A Snow Light Snow